Theta_e
359 358 356 354 352 351 351 355 356 355 353 350 351 356 353 358 360 360 362 363 365 365 365 367 369 369 366 367 368 367 366 364 364 361 363 363 362 361 360 358 361 359
362 363 361 359 358 358 356 356 359 357 356 357 353 355 358 358 359 359 361 362 365 365 366 365 368 370 368 364 366 366 366 365 364 361 362 363 364 362 360 362 359 361
363 363 361 359 356 358 355 358 360 358 356 356 355 357 356 358 360 362 362 362 363 364 365 366 367 368 368 366 366 365 363 366 365 361 363 364 362 361 363 359 358 358
364 364 362 359 357 359 358 358 358 361 359 358 357 355 355 355 360 362 363 365 363 363 362 363 363 364 366 366 366 364 363 364 365 366 362 364 364 362 362 362 359 358
364 364 363 361 359 362 362 358 357 359 360 358 359 360 359 361 361 362 363 363 364 362 362 362 364 363 365 366 366 364 362 361 365 367 364 364 366 364 362 361 361 358
366 366 366 364 363 361 360 358 359 360 361 357 359 360 359 360 361 361 363 362 361 359 357 360 362 362 362 365 365 364 362 359 359 364 365 365 364 361 359 359 361 360
363 366 364 363 362 361 361 362 362 362 361 361 361 360 360 360 361 363 363 362 361 360 357 360 363 362 362 363 365 364 364 363 362 362 364 364 366 363 359 359 361 361
364 366 365 364 362 361 362 362 362 362 362 363 359 361 361 359 362 361 362 363 361 361 360 358 363 364 360 360 362 363 364 361 361 362 364 365 364 364 365 362 361 362
364 364 364 362 361 360 359 360 362 363 363 363 359 358 363 361 362 362 364 365 364 362 362 360 364 362 361 361 362 363 363 361 359 360 361 363 363 363 364 365 362 362
363 364 362 361 359 358 359 358 359 361 363 363 361 357 358 362 362 363 364 367 365 363 363 362 362 361 363 362 361 362 363 363 362 360 360 362 362 362 362 363 362 362
361 360 360 360 358 357 357 358 357 358 361 362 362 359 357 361 364 365 366 367 364 364 364 364 363 364 364 362 361 362 363 363 363 363 362 363 363 363 363 363 363 361
360 358 359 360 358 357 356 357 357 357 358 361 361 360 358 357 362 363 364 367 368 367 366 366 367 366 366 365 360 360 362 363 362 363 362 364 364 363 363 364 362 363
358 357 359 360 359 357 357 357 357 356 356 358 360 360 358 356 359 364 364 366 369 368 366 367 368 367 369 368 364 361 361 363 360 360 362 362 364 363 362 363 363 363
359 359 360 361 361 362 361 358 358 357 357 357 361 360 358 357 356 361 364 365 367 368 368 369 369 368 369 370 368 363 361 361 362 361 359 361 361 362 361 359 359 360
363 361 361 363 362 364 363 361 360 361 360 359 363 362 360 358 357 357 362 363 364 367 368 367 366 367 367 368 369 367 364 360 363 363 360 359 360 359 361 360 358 357
367 367 365 365 365 367 367 364 361 362 361 361 361 362 364 362 361 358 358 362 362 365 366 365 365 366 361 348 354 368 365 361 361 364 364 361 359 359 357 359 359 357
367 366 367 367 368 368 368 367 366 363 363 365 364 364 366 368 363 357 356 358 361 362 363 363 363 362 346 338 340 348 364 365 362 363 366 365 361 361 360 357 357 359
366 367 368 368 369 368 368 368 366 364 366 365 362 362 367 365 362 361 362 358 359 361 360 361 363 350 335 335 337 338 349 367 363 361 361 363 364 362 361 361 358 355
368 367 367 367 368 369 369 368 368 367 364 362 361 364 365 366 367 363 362 361 360 361 360 360 361 342 332 333 335 335 336 352 363 363 360 360 362 364 363 362 362 360
368 368 367 369 369 369 370 369 367 366 365 364 363 365 366 366 365 364 364 366 363 363 364 361 362 339 330 329 331 331 333 341 367 365 363 360 361 362 363 363 364 363
368 368 368 369 370 369 370 369 367 367 366 365 364 364 366 366 365 364 365 365 363 362 362 362 360 333 328 326 327 327 331 336 365 364 364 364 365 366 366 365 366 366
368 368 369 370 370 370 369 369 368 369 368 367 365 363 366 367 367 365 364 365 365 363 361 361 362 326 326 325 325 326 328 353 363 363 363 363 364 365 367 369 369 369
367 368 369 370 370 369 369 368 368 369 368 368 365 363 362 364 366 364 366 365 365 365 362 360 362 336 323 322 322 323 331 359 362 361 362 363 364 365 365 367 368 369
369 368 369 370 370 369 369 368 369 369 368 369 365 361 359 362 365 365 364 365 364 365 363 362 362 346 318 320 320 320 337 361 362 361 362 363 365 367 367 368 369 366
369 369 369 369 370 369 368 368 368 369 368 369 366 363 360 362 363 364 364 364 363 364 359 361 361 345 317 319 318 317 338 364 363 362 361 362 363 364 367 366 368 367
370 370 370 370 371 370 370 370 370 369 369 367 365 363 362 359 359 362 362 362 362 362 364 363 362 363 338 317 316 316 324 363 365 361 360 361 363 364 365 367 367 368
Wind_Speed
14 13 14 13 13 12 12 12 11 12 11 11 10 10 10 9 9 9 10 9 10 9 9 8 8 8 7 6 6 5 5 5 6 5 6 6 6 6 6 6 5 4
16 15 13 13 12 11 11 12 12 11 11 10 10 9 9 10 11 11 10 10 10 10 10 9 9 8 8 7 7 6 6 6 7 5 5 6 6 6 6 6 5 4
17 16 16 16 14 16 16 13 12 12 11 12 11 9 10 10 11 11 11 11 10 10 10 9 10 9 8 8 7 7 7 6 7 7 6 6 6 6 6 6 5 6
18 17 16 17 16 15 15 13 13 12 12 11 12 11 10 10 11 12 11 12 10 10 10 10 10 10 9 9 8 7 8 7 7 6 6 5 6 6 6 6 6 5
19 17 16 15 15 14 14 14 15 14 14 12 12 12 10 9 11 12 11 11 11 11 10 10 10 10 9 9 9 8 8 8 8 7 6 6 6 6 6 6 6 6
17 16 15 15 15 14 14 15 15 14 14 14 13 12 12 11 12 13 13 13 12 12 12 11 11 10 10 10 9 8 8 8 8 8 8 7 7 7 6 6 7 7
19 18 18 16 16 16 15 14 13 13 14 13 12 12 12 13 12 13 13 13 13 12 12 11 11 11 10 9 9 9 9 9 8 8 9 8 7 8 8 7 7 7
20 18 17 16 18 17 16 15 15 14 13 13 14 13 12 13 13 13 12 13 13 13 12 12 11 11 12 11 10 10 11 9 9 9 9 9 8 8 8 7 7 8
19 18 18 19 19 17 18 17 16 15 14 14 14 14 13 13 14 14 12 12 12 12 12 12 11 12 11 11 10 11 11 11 10 10 10 10 10 10 9 8 8 8
19 18 20 20 20 18 19 19 17 16 15 15 15 14 14 13 13 14 13 12 13 12 13 12 12 12 12 12 12 12 12 11 11 10 10 11 11 11 10 10 9 9
21 20 20 21 20 18 20 20 18 17 15 16 15 15 15 14 12 13 13 13 13 13 13 13 13 13 13 13 12 12 12 12 11 10 11 11 11 10 10 10 10 10
21 21 21 22 21 20 21 20 18 18 17 16 16 16 15 15 14 13 13 14 13 13 13 13 13 13 13 13 13 13 12 12 11 11 11 11 11 11 11 10 10 10
22 21 20 21 20 20 18 18 18 18 18 17 16 16 16 16 16 15 13 14 14 13 14 13 13 13 12 13 12 12 12 12 12 12 12 11 11 12 11 11 11 11
21 20 19 18 18 16 17 18 18 17 17 16 15 16 16 17 16 16 14 14 14 14 14 13 13 13 13 13 12 12 12 12 12 12 12 12 12 12 12 12 12 12
17 18 17 17 17 16 16 16 16 15 14 14 14 15 14 16 16 16 16 15 15 14 14 13 14 13 12 13 13 13 12 13 13 13 12 12 12 12 12 11 11 11
16 15 16 17 16 16 15 15 15 15 15 14 14 15 14 13 14 14 16 16 15 15 15 13 13 12 12 16 14 12 13 12 11 12 12 11 11 11 11 12 12 12
16 16 16 16 16 16 16 15 14 14 14 13 14 15 14 13 13 16 16 16 16 16 16 14 13 12 16 17 17 16 13 12 11 11 12 11 12 11 10 11 11 11
17 16 16 16 16 16 16 16 15 15 14 14 15 16 13 14 15 15 14 15 14 16 16 15 14 13 17 18 18 18 14 12 12 11 11 11 11 11 11 11 11 11
17 18 18 17 17 16 16 16 15 15 16 16 17 15 15 14 14 15 15 14 14 15 15 15 14 14 18 20 19 18 18 13 11 11 11 12 11 12 11 10 10 10
18 18 18 18 17 16 16 17 17 16 17 16 15 15 14 15 16 15 14 14 13 13 13 13 14 14 19 20 19 19 18 14 10 10 11 11 11 11 11 11 11 10
18 18 18 17 17 17 16 17 17 16 17 15 16 16 15 15 15 15 14 14 15 14 13 13 12 16 20 20 19 20 19 14 13 11 9 9 9 10 10 10 10 10
19 18 18 17 17 17 17 17 17 16 16 15 14 15 14 13 13 14 15 15 15 15 15 14 11 17 19 20 20 20 19 11 12 12 11 10 10 10 10 9 10 10
19 19 18 18 18 18 18 18 17 16 15 13 14 14 15 15 14 14 13 14 15 15 15 14 13 14 19 20 20 20 14 10 12 12 11 12 11 11 11 11 11 11
19 19 19 19 18 19 18 17 17 15 15 14 15 15 15 15 14 13 14 14 16 16 16 14 13 13 20 20 20 20 17 13 12 11 11 11 11 11 10 10 12 14
19 19 19 19 18 19 18 18 17 16 15 14 14 14 14 13 13 13 13 14 15 16 15 17 15 12 20 20 21 21 17 12 11 11 11 11 11 10 11 10 11 11
17 17 18 18 18 17 16 16 15 15 15 15 14 14 13 14 14 13 14 14 14 15 14 17 16 11 16 22 22 22 22 14 11 11 11 12 11 10 9 10 11 11
Wind_Direction
190 189 192 194 198 201 201 200 202 202 205 206 207 204 207 198 202 199 206 201 200 209 207 205 206 209 213 213 217 228 240 232 240 228 220 231 226 239 240 239 241 246
190 189 191 193 196 198 201 202 203 206 203 211 216 204 202 199 195 197 197 204 201 206 206 202 206 209 214 214 216 221 224 227 231 229 228 223 237 242 244 244 246 246
189 190 190 192 196 196 200 200 202 205 207 208 213 214 202 199 196 193 193 199 204 206 205 204 205 208 211 217 216 218 221 226 231 233 223 227 232 235 252 246 231 233
190 191 192 195 197 197 199 200 201 203 208 205 208 210 212 199 194 191 196 195 199 204 203 206 209 206 207 213 214 219 222 226 228 234 230 228 227 236 237 245 253 243
189 190 193 195 198 196 197 202 202 201 207 205 204 207 206 204 187 193 194 193 198 200 200 204 205 207 204 208 213 218 221 221 221 221 232 229 227 229 236 237 243 247
188 190 192 194 195 195 197 200 203 202 203 206 203 202 202 200 194 197 193 193 194 199 200 203 202 207 205 205 210 218 223 227 216 212 223 227 230 226 229 223 226 234
187 187 191 192 194 196 197 198 201 204 203 207 199 203 199 198 201 199 195 196 195 197 202 197 201 204 203 202 208 213 221 226 233 211 214 224 227 240 242 230 224 231
186 186 188 190 194 193 196 196 199 201 203 203 204 198 200 199 200 203 200 195 197 195 198 200 196 200 203 201 204 210 216 218 222 224 214 222 228 228 235 242 230 228
185 186 187 191 193 195 199 198 197 200 201 202 206 200 198 203 196 204 200 197 200 195 193 200 196 198 204 204 203 208 214 221 220 217 220 220 221 227 228 227 234 233
186 187 189 191 195 198 199 201 199 198 198 202 202 205 199 201 203 201 201 199 202 198 194 197 195 198 201 206 207 208 212 217 224 222 219 221 226 226 225 228 232 230
187 189 191 193 197 199 200 201 202 200 199 202 201 206 202 195 201 201 201 199 202 201 195 196 196 197 199 205 207 208 212 215 217 222 223 223 225 227 230 229 229 232
188 191 193 194 197 199 200 200 201 201 197 199 204 204 204 197 195 201 202 199 202 201 198 195 196 197 199 205 207 208 210 215 216 218 222 222 223 225 227 228 231 231
189 191 193 194 195 199 200 200 201 201 200 198 200 203 202 203 194 197 201 201 200 202 199 196 197 199 199 202 210 212 211 213 219 215 219 220 221 224 226 225 227 230
191 190 192 193 194 197 200 201 200 202 200 198 195 201 203 203 200 194 198 201 201 202 200 196 195 199 200 201 205 212 213 214 217 221 218 219 222 222 226 229 226 228
189 188 190 189 191 192 198 200 199 199 199 197 191 199 204 204 206 198 196 202 203 202 201 199 198 200 200 200 201 206 214 216 215 219 222 223 223 224 223 229 236 236
184 185 186 188 187 190 194 197 198 196 198 198 193 196 201 206 205 204 200 200 203 202 204 203 203 202 196 193 194 202 207 216 216 218 222 225 224 226 228 225 230 237
183 184 184 186 186 186 189 194 196 195 196 195 195 193 198 200 206 206 209 202 203 206 206 208 207 206 183 184 190 201 206 210 217 218 219 224 225 223 227 230 233 234
182 182 183 185 184 184 186 189 193 194 194 194 197 193 195 199 202 206 209 208 204 206 208 210 212 199 172 181 187 195 205 210 213 218 218 219 222 224 223 226 232 236
179 182 182 183 185 184 183 184 189 193 193 194 196 194 192 199 200 203 205 211 209 206 211 211 217 182 172 180 186 192 201 214 216 216 219 220 219 220 225 225 228 232
180 181 181 182 182 182 182 184 187 191 193 193 193 193 194 197 202 202 204 206 211 211 210 215 220 166 174 179 185 190 196 204 223 222 222 223 221 221 221 225 226 231
180 181 181 179 179 180 181 185 186 189 192 192 193 194 193 196 200 201 203 206 207 212 212 214 221 161 174 177 184 189 193 199 216 225 232 231 229 226 227 227 227 226
181 180 180 178 178 179 182 184 186 188 190 192 195 196 196 195 200 204 202 204 206 210 216 215 213 162 176 177 181 188 185 194 211 221 229 234 230 232 231 230 232 232
181 181 179 180 178 180 183 184 185 187 190 191 196 198 196 197 200 203 203 204 205 208 215 215 219 172 175 179 180 181 172 197 206 216 224 227 231 226 227 229 229 229
182 182 181 180 180 183 183 185 186 186 188 190 196 200 201 200 201 204 206 207 206 208 209 212 220 174 176 177 180 174 179 193 201 212 220 223 227 228 226 226 227 225
182 183 183 182 183 185 185 185 186 186 188 190 197 203 205 203 202 204 207 208 209 210 202 209 220 184 175 175 179 177 184 194 197 210 218 221 224 224 223 227 229 223
184 183 184 184 184 183 183 183 183 184 187 189 196 200 203 210 204 207 210 211 210 211 203 207 216 206 175 177 177 179 186 191 198 207 214 219 223 224 222 222 227 232